Location: Radford
(37.1320°N, 80.5770°W)
Time: 16:39:07
(UTC-04:00)

Daily predictions for brighter satellites

Satellite Brightness Start Highest point End
(mag) Time Altitude Azimuth Time Altitude Azimuth Time Altitude Azimuth
Cosmos 2369 Rocket 4.0 20:55:48 10° NW 21:00:43 31° WSW 21:05:39 10° SSW
Cosmos 2315 Rocket 4.3 20:57:56 10° SSW 21:04:11 75° W 21:10:32 10° N
Cosmos 1544 Rocket 3.6 20:59:57 10° N 21:04:18 82° W 21:08:36 10° S
Cosmos 1943 Rocket 2.8 20:58:59 10° NNW 21:04:28 57° WSW 21:09:51 10° S
Cosmos 2074 Rocket 4.5 20:59:46 10° N 21:05:43 44° ENE 21:11:38 10° SSE
Aureole 1 Rocket 2.9 21:04:48 10° S 21:07:57 35° ESE 21:10:46 10° NE
Cosmos 2184 Rocket 4.4 21:02:56 10° N 21:08:59 45° ENE 21:14:57 10° SSE
Resurs 1-3 4.1 21:08:48 10° S 21:13:07 62° WSW 21:17:29 10° NNW
Cosmos 405 Rocket 2.6 21:10:51 10° S 21:14:33 66° E 21:18:21 10° NNE
DEBRIS 3.4 21:14:23 10° WSW 21:17:16 78° NNW 21:25:35 10° NE
Cosmos 1500 4.2 21:14:23 10° NNW 21:18:00 46° W 21:21:36 10° SSW
Meteor 1-19 Rocket 4.3 21:13:13 10° S 21:18:59 70° E 21:24:42 10° NNE
Cosmos 923 Rocket 4.2 21:15:28 10° SSW 21:20:47 79° WNW 21:26:07 10° NNE
Tiangong 2 2.0 21:20:18 10° W 21:23:24 50° NNW 21:26:31 10° ENE
Cosmos 1441 Rocket 3.6 21:19:54 10° SSE 21:23:25 40° E 21:26:56 10° NNE
ERS-1 Rocket 3.9 21:21:27 11° SE 21:25:35 32° ENE 21:30:00 10° N
Resurs 01 Rocket 3.1 21:22:47 10° SSW 21:26:53 37° W 21:31:01 10° NNW
Cosmos 1455 Rocket 4.0 21:24:59 10° NNW 21:29:11 49° W 21:33:20 10° SSW
CENTAUR R/B 3.2 21:21:15 10° NNW 21:29:19 86° WSW 21:37:39 11° SSE
SPOT 5 4.4 21:30:15 11° E 21:32:35 17° ENE 21:35:18 10° NNE
Nadezhda 1 Rocket 4.1 21:29:25 10° S 21:35:39 64° E 21:41:59 10° NNE
Meteor 1-29 2.8 21:32:23 10° NNE 21:35:46 87° ESE 21:39:06 10° SSW
COSMOS 2406 3.9 21:35:31 10° SW 21:41:10 58° WNW 21:46:48 10° NNE
Cosmos 2082 Rocket 3.5 21:41:51 17° SE 21:43:57 20° E 21:48:01 10° NE
ASTRO E2 4.1 21:45:09 10° WSW 21:48:22 24° SSW 21:49:56 19° SSE
Cosmos 1743 3.7 21:46:50 10° NNW 21:50:36 48° W 21:54:21 10° SSW
CZ-4B DEB 3.1 21:48:37 14° S 21:51:01 56° W 21:53:57 10° NNW
CRYOSAT 2 4.4 21:48:53 15° SSE 21:52:51 66° E 21:57:40 10° N
Cosmos 2154 Rocket 4.2 21:46:56 10° N 21:53:09 54° E 21:57:43 19° SSE
Cosmos 1238 Rocket 4.1 21:48:16 10° S 21:55:00 86° E 22:01:33 10° N
Aureole 3 Rocket 4.2 21:50:37 10° SSW 21:57:06 59° W 22:01:42 10° N
ISS -1.5 21:55:09 10° W 21:58:01 27° NNW 22:00:54 10° NNE
ASTEX 1 3.3 21:55:06 14° S 21:59:19 84° E 22:04:14 10° N
H-2A R/B 3.3 21:59:49 19° E 22:01:51 24° ENE 22:05:49 10° NNE
OAO 2 Rocket 3.2 21:57:13 10° W 22:02:08 68° S 22:05:07 24° ESE
Cosmos 1624 Rocket 4.3 21:57:38 10° N 22:02:48 51° ENE 22:05:36 26° SE
Helios 1A 4.3 21:59:31 10° SSW 22:03:25 36° W 22:07:20 10° NNW
SL-27 R/B 4.3 22:02:51 10° SW 22:06:12 34° WNW 22:09:35 10° N
Cosmos 1697 Rocket 4.5 22:02:43 10° NNE 22:06:30 18° NE 22:09:12 13° E
Cosmos 967 Rocket 4.4 22:00:27 10° SSW 22:06:40 75° ESE 22:12:56 10° NNE
Cosmos 1939 Rocket 4.1 22:04:22 10° SSW 22:07:56 36° W 22:11:32 10° NNW
Cosmos 2228 4.2 22:05:06 10° NNE 22:08:39 24° ENE 22:09:27 23° E
YAOGAN 6 3.0 22:06:34 20° S 22:08:45 57° W 22:12:13 10° NNW
Cosmos 921 Rocket 3.9 22:07:06 10° N 22:11:12 35° ENE 22:12:34 28° ESE
Cosmos 1666 4.0 22:09:43 10° NNW 22:13:11 36° W 22:16:15 12° SSW
SL-08 RB Rocket 4.3 22:12:26 29° ESE 22:13:54 38° ENE 22:18:03 10° N
Meteor 2-9 Rocket 4.5 22:09:10 10° NNW 22:14:38 67° W 22:19:13 16° S
Okean 1-7 Rocket 4.3 22:12:03 10° SSW 22:16:24 54° W 22:20:50 10° N
Cosmos 1892 Rocket 3.6 22:15:23 30° SSE 22:17:22 60° E 22:21:44 10° NNE
Cosmos 1833 Rocket 3.1 22:19:03 29° SSE 22:21:05 40° ESE 22:26:18 10° NE
Intercosmos 24 3.7 22:17:49 10° N 22:21:31 73° W 22:22:54 34° S
Cosmos 2056 Rocket 3.4 22:16:57 10° NNW 22:22:07 72° ENE 22:24:17 35° SSE
NOSS 8 (E) 4.3 22:19:23 10° SSW 22:22:48 84° ESE 22:26:24 10° NNE
CZ-3B Rocket 4.2 22:18:55 10° SSW 22:39:11 - ESE 22:21:32 19° S
Cosmos 1437 Rocket 2.6 22:20:12 10° N 22:24:03 90° WSW 22:25:17 43° S
Cosmos 2341 Rocket 4.0 22:19:38 10° N 22:26:00 72° E 22:29:28 29° SSE
MetOp-A 4.1 22:23:25 28° SSE 22:26:23 87° WSW 22:31:47 10° NNW
Cosmos 1606 Rocket 3.4 22:27:25 10° N 22:31:45 84° W 22:33:15 40° S
PSLV R/B 3.1 22:30:07 10° WNW 22:32:59 70° W 22:32:59 70° W
Cosmos 839 Rocket 4.4 22:29:10 10° NNW 22:35:50 72° ENE 22:39:48 32° SE
Cosmos 1066 Rocket 4.4 22:34:16 38° SE 22:35:58 52° E 22:41:23 10° NNE
Cosmos 2218 Rocket 4.4 22:31:35 10° N 22:37:25 44° ENE 22:39:18 35° ESE
USA 245 3.8 22:42:20 34° NNW 22:42:20 34° NNW 22:43:48 10° NNW
Cosmos 1726 Rocket 3.5 22:37:09 10° N 22:41:28 79° W 22:42:37 48° S
Cosmos 1515 4.1 22:40:58 35° SW 22:42:18 58° W 22:46:05 10° N
COSMOS 2487 2.6 22:43:45 58° SW 22:44:18 71° WNW 22:47:52 10° NNE
CZ-3A R/B 2.7 22:45:27 10° WSW 22:48:24 23° NW 22:48:50 21° NNW
CARTOSAT-1 4.5 22:50:14 34° ENE 22:50:16 34° ENE 22:54:10 10° N
Landsat 7 3.9 22:52:27 52° ESE 22:53:05 56° ENE 22:57:45 10° N
SPOT 1/Viking Rocket 3.4 22:51:40 49° SSE 22:53:06 87° ENE 22:58:17 10° NNW
Cosmos 2181 Rocket 4.2 22:49:25 21° SSW 22:53:49 73° W 23:00:08 10° N
Cosmos 1452 Rocket 3.7 22:48:55 10° N 22:54:06 56° ENE 22:55:04 48° ESE
Cosmos 1980 Rocket 3.5 22:50:17 10° N 22:54:59 26° ENE 22:56:23 24° E
Cosmos 2058 Rocket 3.1 22:51:40 10° N 22:56:06 76° W 22:56:51 59° SSW
Tiangong 2 3.0 22:57:45 10° WNW 23:00:32 27° N 23:00:58 26° NNE
ARGOS 3.6 22:58:32 34° SSW 23:00:39 56° W 23:05:59 10° NNW
Cosmos 2322 Rocket 4.5 23:02:48 10° NNE 23:04:57 12° NE 23:07:05 10° ENE
USA 267 4.2 23:01:56 10° ENE 23:05:41 27° E 23:05:41 27° E
Terra 2.0 23:07:56 55° E 23:08:07 56° ENE 23:12:46 10° N
SPOT 5 3.6 23:09:29 34° SW 23:10:20 38° W 23:14:23 10° NNW
H-2A R/B 2.3 23:15:12 62° ENE 23:15:12 62° ENE 23:19:31 10° N
IGS 5A 3.8 23:18:14 57° NNE 23:18:14 57° NNE 23:21:48 10° N
Cosmos 468 4.4 23:17:24 59° SSW 23:18:26 84° WNW 23:23:44 10° NNE
Cosmos 1812 Rocket 4.1 23:14:44 10° N 23:18:32 49° NE 23:18:32 49° NE
Cosmos 864 Rocket 4.4 23:13:05 10° N 23:19:23 82° E 23:20:40 59° SSE
Meteor 2-21 4.3 23:17:37 10° N 23:23:41 86° W 23:24:51 61° S
Cosmos 1626 Rocket 3.8 23:26:20 64° WNW 23:26:20 64° WNW 23:30:27 10° N
Spot 4 4.5 23:26:55 43° ENE 23:26:55 43° ENE 23:31:10 10° N
Cosmos 2082 Rocket 3.0 23:23:35 18° SW 23:27:37 49° WNW 23:33:06 10° N
Meteor 2-21 Rocket 4.3 23:21:41 10° N 23:27:46 82° E 23:28:38 67° SSE
Cosmos 2278 4.4 23:24:54 10° NW 23:30:16 44° WSW 23:31:16 40° SW
SL-19 R/B 4.0 23:27:27 10° NNE 23:32:47 84° WNW 23:33:15 74° SW
Meteor 1-22 Rocket 4.0 23:28:59 10° NNW 23:34:19 80° W 23:34:39 75° SW
USA 229 DEB 4.1 23:30:07 10° NNW 23:37:09 56° NE 23:39:05 44° E
USA 229 4.2 23:30:14 10° NNW 23:37:15 55° NE 23:39:12 44° E
H-2A R/B 3.0 23:40:27 33° WSW 23:41:03 34° W 23:45:36 10° NNW
Cosmos 2366 rocket 4.2 23:36:18 10° NNW 23:42:22 61° W 23:43:33 51° SW
Cosmos 158 Rocket 4.1 23:46:05 71° W 23:46:20 73° WNW 23:51:43 10° NNE
Cosmos 1697 Rocket 2.8 23:45:23 10° NNW 23:50:55 62° WSW 23:50:57 62° WSW
Cosmos 2360 4.3 23:46:08 10° NNW 23:51:49 64° ENE 23:51:49 64° ENE
